Location: Newark
(25.4800°N, 85.7200°E)
Time: 15:04:17
(UTC+00:00)

Vanguard 1 Rocket - Pass Details

Date: 25 August 2019
Orbit: 651 x 4225 km, 34.3° (Epoch: 20 September)

Event Time Altitude Azimuth Distance (km) Brightness Sun altitude
Rises 19:58:07 0° 271° (W) 3,167 - -46.6°
Reaches altitude 10° 20:00:46 10° 281° (W) 2,102 - -46.2°
Maximum altitude 20:04:52 35° 349° (NNW) 1,052 - -45.7°
Drops below altitude 10° 20:09:15 10° 56° (NE) 2,234 - -45.0°
Exits shadow 20:09:38 - 58° (ENE) 2,387 10.1 -45.0°
Sets 20:12:09 0° 66° (ENE) 3,403 11.0 -44.6°
